GW5432 Weather Reports


Display with metric or nautical units.
time (UTC)temp
F
wind
direction
speed
MPH
gust
MPH
rain 1hr
in
rain 24hr
in
rain mn
in
humidity
%
barometer
mb
20260506101512 56 310 0.0 1.0 0.00 0.00 0.00 87 1018.5
20260506100029 56 309 0.0 0.0 0.00 0.00 0.00 87 1018.5
20260506094525 56 309 0.0 2.0 0.00 0.00 0.00 87 1018.5
20260506093009 56 310 0.0 0.0 0.00 0.00 0.00 86 1018.5
20260506091512 56 312 0.0 2.0 0.00 0.00 0.00 86 1018.5
20260506090016 56 308 0.0 2.0 0.00 0.00 0.00 85 1018.6
20260506084532 56 306 0.0 2.0 0.00 0.00 0.00 85 1018.6
20260506083029 56 310 0.0 2.0 0.00 0.00 0.00 85 1018.6
20260506081509 56 45 0.0 2.0 0.00 0.00 0.00 84 1018.5
20260506073022 56 185 1.0 2.0 0.00 0.00 0.00 83 1018.1
20260506071526 56 154 1.0 2.0 0.00 0.00 0.00 83 1017.9
20260506061526 56 150 2.0 3.0 0.00 0.00 0.00 82 1017.4
20260506044516 57 147 1.0 4.0 0.00 0.01 0.00 81 1016.5
20260506043020 56 196 4.0 8.0 0.00 0.01 0.00 82 1016.5
20260506041522 56 181 8.0 12.0 0.00 0.01 0.00 82 1016.1
20260506040035 57 172 5.0 10.0 0.00 0.01 0.00 81 1015.9
20260506034529 57 164 4.0 13.0 0.00 0.01 0.00 81 1015.7
20260506033014 57 165 5.0 10.0 0.00 0.01 0.00 81 1015.5
20260506031503 57 156 5.0 13.0 0.00 0.01 0.00 80 1015.3
20260506030004 57 140 6.0 12.0 0.00 0.01 0.00 80 1015.0
20260506024509 58 140 4.0 10.0 0.00 0.01 0.00 79 1014.7
20260506023016 58 172 6.0 15.0 0.00 0.01 0.00 79 1014.5
20260506021530 58 158 6.0 14.0 0.00 0.01 0.00 79 1014.5
20260506020004 59 84 5.0 15.0 0.00 0.02 0.00 78 1014.4
20260506014504 60 156 5.0 17.0 0.00 0.03 0.00 76 1014.1
20260506013010 60 179 10.0 21.0 0.00 0.05 0.00 76 1014.1
20260506011516 60 124 7.0 17.0 0.00 0.07 0.00 77 1014.0
20260506010040 61 175 8.0 16.0 0.00 0.07 0.00 76 1013.9
20260506004505 61 215 5.0 17.0 0.00 0.07 0.00 75 1013.8
20260506003008 61 192 8.0 14.0 0.00 0.07 0.00 75 1013.8
20260506001516 61 141 8.0 15.0 0.00 0.07 0.00 74 1013.7
20260506000020 61 135 6.0 14.0 0.00 0.07 0.00 74 1013.7
20260505234508 61 140 4.0 14.0 0.00 0.07 0.00 74 1013.7
20260505233008 62 156 8.0 16.0 0.00 0.07 0.00 74 1013.7
20260505231512 63 184 7.0 13.0 0.00 0.07 0.00 1013.8
20260505230020 63 199 4.0 13.0 0.00 0.07 0.00 72 1013.8
20260505224522 63 184 5.0 14.0 0.00 0.07 0.00 73 1013.9
20260505223008 64 208 6.0 13.0 0.00 0.08 0.00 69 1014.2
20260505221512 65 102 2.0 14.0 0.00 0.08 0.00 71 1014.3
20260505220015 65 222 4.0 10.0 0.00 0.09 0.00 68 1014.5
20260505214539 65 77 2.0 11.0 0.00 0.11 0.00 71 1014.7
20260505213026 63 156 4.0 9.0 0.00 0.13 0.00 71 1014.8
20260505211510 62 173 5.0 9.0 0.00 0.15 0.00 73 1014.9
20260505210013 61 209 3.0 11.0 0.00 0.21 0.00 74 1015.0
20260505204520 59 96 5.0 12.0 0.00 0.25 0.00 76 1015.0
20260505203034 60 232 4.0 14.0 0.00 0.28 0.00 76 1015.0
20260505201509 61 234 5.0 12.0 0.00 0.29 0.00 74 1015.0
20260505200014 62 162 4.0 11.0 0.00 0.29 0.00 74 1015.0
20260505194516 60 183 5.0 11.0 0.00 0.29 0.00 74 1015.0
20260505193021 65 47 1.0 5.0 0.00 0.29 0.00 66 1015.1
20260505191526 64 40 4.0 8.0 0.00 0.29 0.00 66 1015.1
20260505190010 61 13 1.0 4.0 0.00 0.29 0.00 73 1015.1
20260505184518 60 65 1.0 6.0 0.00 0.29 0.00 74 1015.3
20260505183020 60 50 1.0 4.0 0.00 0.29 0.00 71 1015.2
20260505181525 61 44 2.0 7.0 0.00 0.29 0.00 72 1015.1
20260505180050 59 88 3.0 7.0 0.00 0.29 0.00 75 1015.0
20260505174528 60 67 2.0 4.0 0.00 0.29 0.00 74 1014.9
20260505173022 59 42 1.0 5.0 0.00 0.29 0.00 75 1014.8
20260505171525 59 23 1.0 3.0 0.00 0.29 0.00 76 1014.7
20260505170024 59 21 1.0 3.0 0.00 0.29 0.00 74 1014.7
20260505164513 57 27 0.0 2.0 0.00 0.29 0.00 75 1014.7
20260505163020 58 56 0.0 1.0 0.00 0.29 0.00 80 1014.6
20260505161520 56 83 0.0 1.0 0.00 0.29 0.00 83 1014.5
20260505153012 54 202 0.0 2.0 0.00 0.29 0.00 85 1014.3
20260505151502 54 165 1.0 2.0 0.00 0.29 0.00 86 1014.2
20260505124506 51 155 1.0 2.0 0.00 0.29 0.00 89 1013.2
20260505123005 51 175 1.0 5.0 0.00 0.29 0.00 89 1013.2
20260505121508 51 173 2.0 3.0 0.00 0.29 0.00 88 1013.4
20260505120006 51 161 1.0 4.0 0.00 0.29 0.00 89 1013.4
20260505114506 51 167 1.0 2.0 0.00 0.29 0.00 90 1013.3
20260505113003 51 169 0.0 3.0 0.00 0.29 0.00 90 1013.3
20260505111507 51 167 1.0 2.0 0.00 0.29 0.00 90 1013.4